Time,TemperatureF,DewpointF,PressureIn,WindDirection,WindDirectionDegrees,WindSpeedMPH,WindSpeedGustMPH,Humidity,HourlyPrecipIn,Conditions,Clouds,dailyrainin,SoftwareType,DateUTC
2013-02-27 00:02:00,32.0,32.0,29.54,North,5,0.0,3.0,98,0.00,,,0.12,,2013-02-27 06:02:00,
2013-02-27 00:11:00,32.0,32.0,29.54,North,5,0.0,3.0,98,0.00,,,0.12,,2013-02-27 06:11:00,
2013-02-27 00:21:00,32.0,32.0,29.54,NNW,346,1.0,3.0,98,0.00,,,0.12,,2013-02-27 06:21:00,
2013-02-27 00:33:00,32.0,32.0,29.54,North,350,0.0,3.0,98,0.00,,,0.12,,2013-02-27 06:33:00,
2013-02-27 00:41:00,32.0,32.0,29.54,North,350,0.0,3.0,98,0.00,,,0.12,,2013-02-27 06:41:00,
2013-02-27 00:51:00,32.0,32.0,29.55,North,349,0.0,3.0,98,0.01,,,0.13,,2013-02-27 06:51:00,
2013-02-27 01:01:00,32.0,32.0,29.55,North,349,0.0,2.0,98,0.01,,,0.13,,2013-02-27 07:01:00,
2013-02-27 01:12:00,32.0,32.0,29.55,North,349,0.0,2.0,98,0.01,,,0.13,,2013-02-27 07:12:00,
2013-02-27 01:21:00,32.0,32.0,29.55,NNW,327,0.0,4.0,98,0.01,,,0.13,,2013-02-27 07:21:00,
2013-02-27 01:32:00,32.0,32.0,29.55,NNW,345,2.0,4.0,98,0.01,,,0.13,,2013-02-27 07:32:00,
2013-02-27 01:42:00,32.0,32.0,29.55,NNW,345,2.0,4.0,98,0.01,,,0.13,,2013-02-27 07:42:00,
2013-02-27 01:51:00,32.0,32.0,29.55,NNW,345,2.0,4.0,98,0.01,,,0.13,,2013-02-27 07:51:00,
2013-02-27 02:01:00,32.0,32.0,29.55,NNW,348,1.0,4.0,98,0.00,,,0.13,,2013-02-27 08:01:00,
2013-02-27 02:11:00,32.0,32.0,29.55,NNW,348,1.0,4.0,98,0.00,,,0.13,,2013-02-27 08:11:00,
2013-02-27 02:21:00,32.0,32.0,29.55,NNW,336,2.0,6.0,98,0.00,,,0.13,,2013-02-27 08:21:00,
2013-02-27 02:32:00,32.0,32.0,29.55,NNW,342,1.0,4.0,98,0.00,,,0.13,,2013-02-27 08:32:00,
2013-02-27 02:41:00,32.0,32.0,29.55,NNW,342,1.0,4.0,98,0.00,,,0.13,,2013-02-27 08:41:00,
2013-02-27 02:52:00,32.0,32.0,29.55,North,349,2.0,5.0,98,0.00,,,0.13,,2013-02-27 08:52:00,
2013-02-27 03:02:00,32.0,32.0,29.55,North,355,2.0,7.0,98,0.00,,,0.13,,2013-02-27 09:02:00,
2013-02-27 03:12:00,32.0,32.0,29.55,North,355,2.0,7.0,98,0.00,,,0.13,,2013-02-27 09:12:00,
2013-02-27 03:22:00,32.0,32.0,29.55,North,350,1.0,6.0,98,0.00,,,0.13,,2013-02-27 09:22:00,
2013-02-27 03:32:00,32.0,32.0,29.55,NNW,345,1.0,5.0,98,0.00,,,0.13,,2013-02-27 09:32:00,
2013-02-27 03:41:00,32.0,32.0,29.55,NNW,345,1.0,5.0,98,0.00,,,0.13,,2013-02-27 09:41:00,
2013-02-27 03:51:00,32.0,32.0,29.55,NNW,343,3.0,7.0,98,0.00,,,0.13,,2013-02-27 09:51:00,
2013-02-27 04:01:00,32.0,32.0,29.55,NNW,342,2.0,7.0,98,0.00,,,0.13,,2013-02-27 10:01:00,
2013-02-27 04:12:00,32.0,32.0,29.55,NNW,342,2.0,7.0,98,0.00,,,0.13,,2013-02-27 10:12:00,
2013-02-27 04:22:00,32.0,32.0,29.56,North,355,2.0,6.0,98,0.00,,,0.13,,2013-02-27 10:22:00,
2013-02-27 04:32:00,32.0,32.0,29.57,NNW,334,2.0,4.0,98,0.00,,,0.13,,2013-02-27 10:32:00,
2013-02-27 04:42:00,32.0,32.0,29.57,NNW,334,2.0,4.0,98,0.00,,,0.13,,2013-02-27 10:42:00,
2013-02-27 04:52:00,31.0,31.0,29.57,NW,306,2.0,7.0,98,0.00,,,0.13,,2013-02-27 10:52:00,
2013-02-27 05:02:00,31.0,31.0,29.58,WNW,299,3.0,6.0,98,0.00,,,0.13,,2013-02-27 11:02:00,
2013-02-27 05:12:00,31.0,31.0,29.58,WNW,299,3.0,6.0,98,0.00,,,0.13,,2013-02-27 11:12:00,
2013-02-27 05:22:00,31.0,30.0,29.58,NNW,336,3.0,7.0,97,0.00,,,0.13,,2013-02-27 11:22:00,
2013-02-27 05:32:00,31.0,30.0,29.58,NNW,346,3.0,9.0,97,0.00,,,0.13,,2013-02-27 11:32:00,
2013-02-27 05:41:00,31.0,30.0,29.58,NNW,346,3.0,9.0,97,0.00,,,0.13,,2013-02-27 11:41:00,
2013-02-27 05:52:00,31.0,30.0,29.58,NNW,333,3.0,8.0,97,0.00,,,0.13,,2013-02-27 11:52:00,
2013-02-27 06:02:00,31.0,30.0,29.59,NNW,331,1.0,6.0,97,0.00,,,0.13,,2013-02-27 12:02:00,
2013-02-27 06:13:00,31.0,30.0,29.59,NNW,331,1.0,6.0,97,0.00,,,0.13,,2013-02-27 12:13:00,
2013-02-27 06:22:00,31.0,30.0,29.58,North,355,2.0,5.0,97,0.00,,,0.13,,2013-02-27 12:22:00,
2013-02-27 06:33:00,31.0,30.0,29.59,North,5,1.0,5.0,97,0.00,,,0.13,,2013-02-27 12:33:00,
2013-02-27 06:42:00,31.0,30.0,29.59,North,5,1.0,5.0,97,0.00,,,0.13,,2013-02-27 12:42:00,
2013-02-27 06:52:00,31.0,30.0,29.58,NNW,343,2.0,6.0,97,0.00,,,0.13,,2013-02-27 12:52:00,
2013-02-27 07:02:00,31.0,30.0,29.59,NNE,23,3.0,6.0,97,0.00,,,0.13,,2013-02-27 13:02:00,
2013-02-27 07:11:00,31.0,30.0,29.59,NNE,23,3.0,6.0,97,0.00,,,0.13,,2013-02-27 13:11:00,
2013-02-27 07:22:00,31.0,30.0,29.59,NNW,347,2.0,5.0,97,0.00,,,0.13,,2013-02-27 13:22:00,
2013-02-27 07:32:00,30.0,29.0,29.59,North,351,3.0,8.0,97,0.00,,,0.13,,2013-02-27 13:32:00,
2013-02-27 07:42:00,30.0,29.0,29.59,North,351,3.0,8.0,97,0.00,,,0.13,,2013-02-27 13:42:00,
2013-02-27 07:52:00,30.0,29.0,29.60,NNW,346,2.0,6.0,97,0.00,,,0.13,,2013-02-27 13:52:00,
2013-02-27 08:02:00,30.0,29.0,29.61,NNW,338,2.0,7.0,96,0.00,,,0.13,,2013-02-27 14:02:00,
2013-02-27 08:12:00,30.0,29.0,29.61,NNW,338,2.0,7.0,96,0.00,,,0.13,,2013-02-27 14:12:00,
2013-02-27 08:22:00,30.0,29.0,29.62,NNW,346,2.0,7.0,97,0.00,,,0.13,,2013-02-27 14:22:00,
2013-02-27 08:32:00,30.0,29.0,29.62,NNW,344,1.0,7.0,96,0.00,,,0.13,,2013-02-27 14:32:00,
2013-02-27 08:42:00,30.0,29.0,29.62,NNW,344,1.0,7.0,96,0.00,,,0.13,,2013-02-27 14:42:00,
2013-02-27 08:52:00,30.0,29.0,29.62,NNW,346,2.0,5.0,96,0.00,,,0.13,,2013-02-27 14:52:00,
2013-02-27 09:02:00,30.0,29.0,29.62,NNW,341,1.0,5.0,96,0.00,,,0.13,,2013-02-27 15:02:00,
2013-02-27 09:12:00,30.0,29.0,29.62,NNW,341,1.0,5.0,96,0.00,,,0.13,,2013-02-27 15:12:00,
2013-02-27 09:22:00,30.0,29.0,29.62,NNW,341,1.0,5.0,96,0.01,,,0.14,,2013-02-27 15:22:00,
2013-02-27 09:32:00,30.0,29.0,29.63,NNW,332,2.0,4.0,96,0.01,,,0.14,,2013-02-27 15:32:00,
2013-02-27 09:42:00,30.0,29.0,29.63,NNW,332,2.0,4.0,96,0.01,,,0.14,,2013-02-27 15:42:00,
2013-02-27 09:52:00,31.0,30.0,29.63,NNW,341,1.0,4.0,96,0.01,,,0.14,,2013-02-27 15:52:00,
2013-02-27 10:02:00,31.0,30.0,29.63,NNW,334,2.0,6.0,95,0.01,,,0.12,,2013-02-27 16:02:00,
2013-02-27 10:12:00,31.0,30.0,29.63,NNW,334,2.0,6.0,95,0.01,,,0.12,,2013-02-27 16:12:00,
2013-02-27 10:22:00,31.0,30.0,29.63,NNW,329,2.0,6.0,95,0.00,,,0.12,,2013-02-27 16:22:00,
2013-02-27 10:32:00,31.0,29.0,29.63,NNW,327,3.0,6.0,94,0.01,,,0.13,,2013-02-27 16:32:00,
2013-02-27 10:42:00,31.0,29.0,29.63,NNW,327,3.0,6.0,94,0.01,,,0.13,,2013-02-27 16:42:00,
2013-02-27 10:52:00,31.0,29.0,29.63,NNW,341,4.0,10.0,94,0.02,,,0.14,,2013-02-27 16:52:00,
2013-02-27 11:02:00,31.0,29.0,29.63,WNW,290,3.0,8.0,93,0.03,,,0.15,,2013-02-27 17:02:00,
2013-02-27 11:11:00,31.0,29.0,29.63,WNW,290,3.0,8.0,93,0.03,,,0.15,,2013-02-27 17:11:00,
2013-02-27 11:21:00,31.0,29.0,29.62,NNW,343,4.0,8.0,93,0.03,,,0.15,,2013-02-27 17:21:00,
2013-02-27 11:32:00,31.0,29.0,29.62,NNW,345,4.0,10.0,93,0.04,,,0.17,,2013-02-27 17:32:00,
2013-02-27 11:42:00,31.0,29.0,29.62,NNW,345,4.0,10.0,93,0.04,,,0.17,,2013-02-27 17:42:00,
2013-02-27 11:52:00,31.0,29.0,29.62,NNW,348,2.0,8.0,93,0.03,,,0.17,,2013-02-27 17:52:00,
2013-02-27 12:01:00,31.0,29.0,29.62,NNW,338,3.0,7.0,94,0.04,,,0.18,,2013-02-27 18:01:00,
2013-02-27 12:11:00,31.0,29.0,29.62,NNW,338,3.0,7.0,94,0.04,,,0.18,,2013-02-27 18:11:00,
2013-02-27 12:22:00,32.0,30.0,29.62,NNW,343,4.0,8.0,94,0.04,,,0.18,,2013-02-27 18:22:00,
2013-02-27 12:32:00,32.0,30.0,29.62,NW,319,4.0,8.0,94,0.04,,,0.20,,2013-02-27 18:32:00,
2013-02-27 12:42:00,32.0,30.0,29.62,NW,319,4.0,8.0,94,0.04,,,0.20,,2013-02-27 18:42:00,
2013-02-27 12:51:00,32.0,30.0,29.62,WNW,286,3.0,8.0,94,0.05,,,0.21,,2013-02-27 18:51:00,
2013-02-27 13:01:00,32.0,30.0,29.62,NNW,336,4.0,8.0,94,0.04,,,0.21,,2013-02-27 19:01:00,
2013-02-27 13:12:00,32.0,30.0,29.62,NNW,336,4.0,8.0,94,0.04,,,0.21,,2013-02-27 19:12:00,
2013-02-27 13:21:00,32.0,30.0,29.62,NNW,333,4.0,9.0,94,0.05,,,0.22,,2013-02-27 19:21:00,
2013-02-27 13:32:00,32.0,30.0,29.62,NW,313,3.0,7.0,94,0.04,,,0.23,,2013-02-27 19:32:00,
2013-02-27 13:42:00,32.0,30.0,29.62,NW,313,3.0,7.0,94,0.04,,,0.23,,2013-02-27 19:42:00,
2013-02-27 13:52:00,33.0,31.0,29.62,NNW,333,3.0,7.0,94,0.04,,,0.24,,2013-02-27 19:52:00,
2013-02-27 14:01:00,33.0,31.0,29.62,North,355,3.0,7.0,93,0.04,,,0.25,,2013-02-27 20:01:00,
2013-02-27 14:12:00,33.0,31.0,29.62,North,355,3.0,7.0,93,0.04,,,0.25,,2013-02-27 20:12:00,
2013-02-27 14:21:00,33.0,31.0,29.63,West,277,3.0,8.0,93,0.05,,,0.27,,2013-02-27 20:21:00,
2013-02-27 14:32:00,33.0,31.0,29.63,WNW,285,4.0,7.0,93,0.05,,,0.28,,2013-02-27 20:32:00,
2013-02-27 14:42:00,33.0,31.0,29.63,WNW,285,4.0,7.0,93,0.05,,,0.28,,2013-02-27 20:42:00,
2013-02-27 14:52:00,33.0,31.0,29.63,NW,310,4.0,8.0,93,0.05,,,0.28,,2013-02-27 20:52:00,
2013-02-27 15:02:00,33.0,31.0,29.64,NW,321,4.0,10.0,92,0.06,,,0.30,,2013-02-27 21:02:00,
2013-02-27 15:11:00,33.0,31.0,29.64,NW,321,4.0,10.0,92,0.06,,,0.30,,2013-02-27 21:11:00,
2013-02-27 15:22:00,33.0,31.0,29.65,NNW,336,4.0,10.0,91,0.04,,,0.30,,2013-02-27 21:22:00,
2013-02-27 15:32:00,33.0,31.0,29.65,NW,318,4.0,8.0,91,0.04,,,0.31,,2013-02-27 21:32:00,
2013-02-27 15:42:00,33.0,31.0,29.65,NW,318,4.0,8.0,91,0.04,,,0.31,,2013-02-27 21:42:00,
2013-02-27 15:51:00,33.0,31.0,29.65,WNW,293,4.0,9.0,92,0.04,,,0.32,,2013-02-27 21:51:00,
2013-02-27 16:01:00,32.0,30.0,29.66,NW,313,4.0,11.0,92,0.02,,,0.31,,2013-02-27 22:01:00,
2013-02-27 16:11:00,32.0,30.0,29.66,NW,313,4.0,11.0,92,0.02,,,0.31,,2013-02-27 22:11:00,
2013-02-27 16:21:00,32.0,30.0,29.66,NW,313,5.0,10.0,92,0.02,,,0.31,,2013-02-27 22:21:00,
2013-02-27 16:32:00,32.0,30.0,29.66,West,259,6.0,9.0,93,0.01,,,0.31,,2013-02-27 22:32:00,
2013-02-27 16:42:00,32.0,30.0,29.66,West,259,6.0,9.0,93,0.01,,,0.31,,2013-02-27 22:42:00,
2013-02-27 16:51:00,32.0,30.0,29.67,NW,317,5.0,10.0,94,0.00,,,0.31,,2013-02-27 22:51:00,
2013-02-27 17:01:00,32.0,30.0,29.67,NW,313,6.0,8.0,94,0.00,,,0.30,,2013-02-27 23:01:00,
2013-02-27 17:11:00,32.0,30.0,29.67,NW,313,6.0,8.0,94,0.00,,,0.30,,2013-02-27 23:11:00,
2013-02-27 17:21:00,32.0,30.0,29.67,NW,313,6.0,8.0,94,0.00,,,0.30,,2013-02-27 23:21:00,
2013-02-27 17:32:00,32.0,31.0,29.68,NW,307,6.0,10.0,95,0.00,,,0.30,,2013-02-27 23:32:00,
2013-02-27 17:42:00,32.0,31.0,29.68,NW,307,6.0,10.0,95,0.00,,,0.30,,2013-02-27 23:42:00,
2013-02-27 17:53:00,32.0,31.0,29.69,NNW,343,5.0,9.0,95,0.01,,,0.31,,2013-02-27 23:53:00,
2013-02-27 18:02:00,32.0,31.0,29.69,NNW,327,5.0,8.0,95,0.01,,,0.30,,2013-02-28 00:02:00,
2013-02-27 18:11:00,32.0,31.0,29.69,NNW,327,5.0,8.0,95,0.01,,,0.30,,2013-02-28 00:11:00,
2013-02-27 18:21:00,32.0,31.0,29.70,NNW,348,5.0,9.0,96,0.01,,,0.30,,2013-02-28 00:21:00,
2013-02-27 18:32:00,32.0,31.0,29.70,NW,323,5.0,9.0,96,0.01,,,0.30,,2013-02-28 00:32:00,
2013-02-27 18:42:00,32.0,31.0,29.70,NW,323,5.0,9.0,96,0.01,,,0.30,,2013-02-28 00:42:00,
2013-02-27 18:52:00,32.0,31.0,29.70,NNW,329,5.0,9.0,96,0.00,,,0.30,,2013-02-28 00:52:00,
2013-02-27 19:01:00,32.0,31.0,29.71,NNW,331,4.0,9.0,96,0.00,,,0.28,,2013-02-28 01:01:00,
2013-02-27 19:11:00,32.0,31.0,29.71,NNW,331,4.0,9.0,96,0.00,,,0.28,,2013-02-28 01:11:00,
2013-02-27 19:21:00,32.0,31.0,29.71,NNW,333,3.0,11.0,96,0.00,,,0.28,,2013-02-28 01:21:00,
2013-02-27 19:32:00,32.0,31.0,29.71,NW,319,5.0,9.0,96,0.00,,,0.28,,2013-02-28 01:32:00,
2013-02-27 19:41:00,32.0,31.0,29.71,NW,319,5.0,9.0,96,0.00,,,0.28,,2013-02-28 01:41:00,
2013-02-27 19:52:00,32.0,31.0,29.72,NNW,338,4.0,9.0,96,0.00,,,0.28,,2013-02-28 01:52:00,
2013-02-27 20:01:00,32.0,31.0,29.72,NNW,346,3.0,8.0,95,0.00,,,0.28,,2013-02-28 02:01:00,
2013-02-27 20:11:00,32.0,31.0,29.72,NNW,346,3.0,8.0,95,0.00,,,0.28,,2013-02-28 02:11:00,
2013-02-27 20:22:00,32.0,31.0,29.72,NNW,336,4.0,8.0,95,0.00,,,0.28,,2013-02-28 02:22:00,
2013-02-27 20:32:00,32.0,31.0,29.73,NNW,341,4.0,8.0,95,0.00,,,0.28,,2013-02-28 02:32:00,
2013-02-27 20:41:00,32.0,31.0,29.73,NNW,341,4.0,8.0,95,0.00,,,0.28,,2013-02-28 02:41:00,
2013-02-27 20:52:00,32.0,31.0,29.73,NNW,341,4.0,8.0,95,0.00,,,0.28,,2013-02-28 02:52:00,
2013-02-27 21:01:00,32.0,31.0,29.73,NW,307,4.0,8.0,95,0.00,,,0.27,,2013-02-28 03:01:00,
2013-02-27 21:11:00,32.0,31.0,29.73,NW,307,4.0,8.0,95,0.00,,,0.27,,2013-02-28 03:11:00,
2013-02-27 21:21:00,32.0,31.0,29.73,NW,306,3.0,8.0,95,0.00,,,0.27,,2013-02-28 03:21:00,
2013-02-27 21:31:00,32.0,31.0,29.74,NW,319,4.0,7.0,96,0.00,,,0.27,,2013-02-28 03:31:00,
2013-02-27 21:42:00,32.0,31.0,29.74,NW,319,4.0,7.0,96,0.00,,,0.27,,2013-02-28 03:42:00,
2013-02-27 21:52:00,32.0,31.0,29.74,NNW,336,4.0,8.0,96,0.00,,,0.27,,2013-02-28 03:52:00,
2013-02-27 22:01:00,32.0,31.0,29.74,WNW,283,5.0,8.0,96,0.00,,,0.27,,2013-02-28 04:01:00,
2013-02-27 22:11:00,32.0,31.0,29.74,WNW,283,5.0,8.0,96,0.00,,,0.27,,2013-02-28 04:11:00,
2013-02-27 22:21:00,32.0,31.0,29.74,North,355,3.0,7.0,96,0.00,,,0.27,,2013-02-28 04:21:00,
2013-02-27 22:32:00,32.0,31.0,29.74,North,355,3.0,7.0,96,0.00,,,0.27,,2013-02-28 04:32:00,
2013-02-27 22:42:00,32.0,31.0,29.74,North,355,3.0,7.0,96,0.00,,,0.27,,2013-02-28 04:42:00,
2013-02-27 22:52:00,32.0,31.0,29.74,WSW,257,3.0,8.0,96,0.00,,,0.27,,2013-02-28 04:52:00,
2013-02-27 23:01:00,32.0,31.0,29.74,NNW,339,4.0,8.0,96,0.00,,,0.26,,2013-02-28 05:01:00,
2013-02-27 23:11:00,32.0,31.0,29.74,NNW,339,4.0,8.0,96,0.00,,,0.26,,2013-02-28 05:11:00,
2013-02-27 23:22:00,32.0,31.0,29.74,NNW,342,4.0,9.0,96,0.00,,,0.26,,2013-02-28 05:22:00,
2013-02-27 23:31:00,32.0,31.0,29.74,NNW,338,4.0,8.0,96,0.00,,,0.26,,2013-02-28 05:31:00,
2013-02-27 23:42:00,32.0,31.0,29.74,NNW,338,4.0,8.0,96,0.00,,,0.26,,2013-02-28 05:42:00,
2013-02-27 23:52:00,32.0,31.0,29.75,NNW,331,4.0,8.0,96,0.00,,,0.26,,2013-02-28 05:52:00,